Time,TemperatureF,DewpointF,PressureIn,WindDirection,WindDirectionDegrees,WindSpeedMPH,WindSpeedGustMPH,Humidity,HourlyPrecipIn,Conditions,Clouds,dailyrainin,SoftwareType,DateUTC
2013-07-02 00:01:00,66.0,50.0,30.03,NW,320,3.0,3.0,58,-99.99,,,-99.99,,2013-07-02 05:01:00,
2013-07-02 00:11:00,66.0,50.0,30.03,NW,320,2.0,3.0,57,-99.99,,,-99.99,,2013-07-02 05:11:00,
2013-07-02 00:32:00,65.0,50.0,30.03,NW,310,4.0,4.0,58,-99.99,,,-99.99,,2013-07-02 05:32:00,
2013-07-02 00:43:00,65.0,50.0,30.03,NW,305,4.0,5.0,58,-99.99,,,-99.99,,2013-07-02 05:43:00,
2013-07-02 00:53:00,63.0,51.0,30.03,NNW,335,3.0,4.0,64,-99.99,,,-99.99,,2013-07-02 05:53:00,
2013-07-02 01:01:00,63.0,51.0,30.03,NNW,335,3.0,4.0,64,-99.99,,,-99.99,,2013-07-02 06:01:00,
2013-07-02 01:12:00,63.0,50.0,30.03,NNW,335,4.0,5.0,63,-99.99,,,-99.99,,2013-07-02 06:12:00,
2013-07-02 01:23:00,63.0,50.0,30.03,NNW,335,4.0,5.0,63,-99.99,,,-99.99,,2013-07-02 06:23:00,
2013-07-02 01:34:00,63.0,50.0,30.03,NW,310,4.0,5.0,64,-99.99,,,-99.99,,2013-07-02 06:34:00,
2013-07-02 01:43:00,62.0,51.0,30.03,NW,305,3.0,4.0,66,-99.99,,,-99.99,,2013-07-02 06:43:00,
2013-07-02 01:53:00,62.0,51.0,30.02,NW,310,4.0,5.0,66,-99.99,,,-99.99,,2013-07-02 06:53:00,
2013-07-02 02:01:00,62.0,51.0,30.02,NW,310,4.0,5.0,66,-99.99,,,-99.99,,2013-07-02 07:01:00,
2013-07-02 02:12:00,63.0,50.0,30.02,NW,310,4.0,5.0,64,-99.99,,,-99.99,,2013-07-02 07:12:00,
2013-07-02 02:34:00,62.0,50.0,30.02,NW,320,4.0,6.0,66,-99.99,,,-99.99,,2013-07-02 07:34:00,
2013-07-02 02:44:00,61.0,50.0,30.02,NW,325,3.0,5.0,68,-99.99,,,-99.99,,2013-07-02 07:44:00,
2013-07-02 03:02:00,62.0,50.0,30.02,NW,305,2.0,4.0,65,-99.99,,,-99.99,,2013-07-02 08:02:00,
2013-07-02 03:12:00,61.0,50.0,30.02,NW,305,3.0,4.0,69,-99.99,,,-99.99,,2013-07-02 08:12:00,
2013-07-02 03:22:00,61.0,50.0,30.02,NW,305,3.0,4.0,69,-99.99,,,-99.99,,2013-07-02 08:22:00,
2013-07-02 03:33:00,60.0,51.0,30.02,WNW,300,3.0,4.0,72,-99.99,,,-99.99,,2013-07-02 08:33:00,
2013-07-02 03:44:00,60.0,51.0,30.02,WNW,300,3.0,5.0,72,-99.99,,,-99.99,,2013-07-02 08:44:00,
2013-07-02 03:53:00,58.0,51.0,30.02,NW,315,3.0,4.0,79,-99.99,,,-99.99,,2013-07-02 08:53:00,
2013-07-02 04:02:00,58.0,51.0,30.02,NW,315,3.0,4.0,79,-99.99,,,-99.99,,2013-07-02 09:02:00,
2013-07-02 04:11:00,58.0,51.0,30.02,NW,305,3.0,4.0,77,-99.99,,,-99.99,,2013-07-02 09:11:00,
2013-07-02 04:33:00,58.0,51.0,30.02,NW,310,2.0,3.0,78,-99.99,,,-99.99,,2013-07-02 09:33:00,
2013-07-02 04:43:00,58.0,51.0,30.02,NW,305,3.0,4.0,80,-99.99,,,-99.99,,2013-07-02 09:43:00,
2013-07-02 05:01:00,57.0,51.0,30.02,WNW,300,3.0,4.0,81,-99.99,,,-99.99,,2013-07-02 10:01:00,
2013-07-02 05:11:00,57.0,51.0,30.02,NW,305,3.0,5.0,82,-99.99,,,-99.99,,2013-07-02 10:11:00,
2013-07-02 05:33:00,57.0,51.0,30.02,WNW,295,2.0,5.0,80,-99.99,,,-99.99,,2013-07-02 10:33:00,
2013-07-02 05:44:00,57.0,51.0,30.02,WNW,295,3.0,5.0,81,-99.99,,,-99.99,,2013-07-02 10:44:00,
2013-07-02 06:01:00,57.0,51.0,30.03,NW,305,3.0,4.0,79,-99.99,,,-99.99,,2013-07-02 11:01:00,
2013-07-02 06:11:00,57.0,51.0,30.03,WNW,295,3.0,5.0,80,-99.99,,,-99.99,,2013-07-02 11:11:00,
2013-07-02 06:33:00,57.0,51.0,30.04,WNW,300,3.0,5.0,81,-99.99,,,-99.99,,2013-07-02 11:33:00,
2013-07-02 06:42:00,57.0,51.0,30.04,West,275,3.0,5.0,80,-99.99,,,-99.99,,2013-07-02 11:42:00,
2013-07-02 06:52:00,55.0,50.0,30.04,NW,310,3.0,5.0,83,-99.99,,,-99.99,,2013-07-02 11:52:00,
2013-07-02 07:01:00,55.0,50.0,30.04,NW,310,3.0,5.0,83,-99.99,,,-99.99,,2013-07-02 12:01:00,
2013-07-02 07:11:00,56.0,50.0,30.05,NNW,330,3.0,4.0,83,-99.99,,,-99.99,,2013-07-02 12:11:00,
2013-07-02 07:33:00,56.0,51.0,30.05,NW,315,3.0,4.0,82,-99.99,,,-99.99,,2013-07-02 12:33:00,
2013-07-02 07:43:00,56.0,51.0,30.05,NW,310,4.0,6.0,82,-99.99,,,-99.99,,2013-07-02 12:43:00,
2013-07-02 08:01:00,56.0,51.0,30.06,NW,320,5.0,6.0,83,-99.99,,,-99.99,,2013-07-02 13:01:00,
2013-07-02 08:11:00,56.0,51.0,30.06,NW,320,6.0,7.0,82,-99.99,,,-99.99,,2013-07-02 13:11:00,
2013-07-02 08:22:00,56.0,51.0,30.06,NW,320,6.0,7.0,82,-99.99,,,-99.99,,2013-07-02 13:22:00,
2013-07-02 08:34:00,58.0,52.0,30.06,NW,325,5.0,7.0,80,-99.99,,,-99.99,,2013-07-02 13:34:00,
2013-07-02 08:43:00,58.0,52.0,30.06,NW,315,5.0,7.0,80,-99.99,,,-99.99,,2013-07-02 13:43:00,
2013-07-02 09:02:00,59.0,53.0,30.07,NNW,335,6.0,9.0,79,-99.99,,,-99.99,,2013-07-02 14:02:00,
2013-07-02 09:11:00,60.0,54.0,30.07,NW,325,5.0,8.0,80,-99.99,,,-99.99,,2013-07-02 14:11:00,
2013-07-02 09:22:00,60.0,54.0,30.07,NW,325,5.0,8.0,80,-99.99,,,-99.99,,2013-07-02 14:22:00,
2013-07-02 09:33:00,62.0,54.0,30.08,NW,325,6.0,8.0,76,-99.99,,,-99.99,,2013-07-02 14:33:00,
2013-07-02 09:43:00,63.0,54.0,30.08,WNW,285,5.0,9.0,74,-99.99,,,-99.99,,2013-07-02 14:43:00,
2013-07-02 10:02:00,64.0,54.0,30.08,NW,315,5.0,11.0,70,-99.99,,,-99.99,,2013-07-02 15:02:00,
2013-07-02 10:11:00,66.0,54.0,30.07,North,0,7.0,11.0,66,-99.99,,,-99.99,,2013-07-02 15:11:00,
2013-07-02 10:33:00,67.0,55.0,30.08,North,0,7.0,10.0,66,-99.99,,,-99.99,,2013-07-02 15:33:00,
2013-07-02 10:44:00,67.0,54.0,30.08,North,355,10.0,14.0,64,-99.99,,,-99.99,,2013-07-02 15:44:00,
2013-07-02 11:01:00,69.0,55.0,30.07,North,5,6.0,16.0,62,-99.99,,,-99.99,,2013-07-02 16:01:00,
2013-07-02 11:12:00,68.0,52.0,30.08,North,0,11.0,17.0,57,-99.99,,,-99.99,,2013-07-02 16:12:00,
2013-07-02 11:22:00,68.0,52.0,30.08,North,0,11.0,17.0,57,-99.99,,,-99.99,,2013-07-02 16:22:00,
2013-07-02 11:33:00,70.0,54.0,30.07,NNW,335,12.0,18.0,57,-99.99,,,-99.99,,2013-07-02 16:33:00,
2013-07-02 11:43:00,71.0,53.0,30.07,NNW,330,10.0,16.0,53,-99.99,,,-99.99,,2013-07-02 16:43:00,
2013-07-02 12:02:00,71.0,51.0,30.08,North,350,10.0,19.0,49,-99.99,,,-99.99,,2013-07-02 17:02:00,
2013-07-02 12:12:00,72.0,52.0,30.08,NNW,330,11.0,18.0,49,-99.99,,,-99.99,,2013-07-02 17:12:00,
2013-07-02 12:22:00,72.0,52.0,30.08,NNW,330,11.0,18.0,49,-99.99,,,-99.99,,2013-07-02 17:22:00,
2013-07-02 12:33:00,73.0,49.0,30.07,North,0,11.0,19.0,43,-99.99,,,-99.99,,2013-07-02 17:33:00,
2013-07-02 12:43:00,73.0,50.0,30.07,North,5,9.0,18.0,44,-99.99,,,-99.99,,2013-07-02 17:43:00,
2013-07-02 13:02:00,74.0,49.0,30.07,North,5,13.0,27.0,41,-99.99,,,-99.99,,2013-07-02 18:02:00,
2013-07-02 13:12:00,74.0,49.0,30.07,North,10,12.0,21.0,41,-99.99,,,-99.99,,2013-07-02 18:12:00,
2013-07-02 13:23:00,74.0,49.0,30.07,North,10,12.0,21.0,41,-99.99,,,-99.99,,2013-07-02 18:23:00,
2013-07-02 13:34:00,74.0,49.0,30.07,North,10,13.0,21.0,41,-99.99,,,-99.99,,2013-07-02 18:34:00,
2013-07-02 13:43:00,74.0,48.0,30.07,North,0,14.0,24.0,39,-99.99,,,-99.99,,2013-07-02 18:43:00,
2013-07-02 14:01:00,75.0,48.0,30.06,North,0,12.0,22.0,38,-99.99,,,-99.99,,2013-07-02 19:01:00,
2013-07-02 14:12:00,76.0,49.0,30.06,North,355,12.0,16.0,39,-99.99,,,-99.99,,2013-07-02 19:12:00,
2013-07-02 14:22:00,76.0,49.0,30.06,North,355,12.0,16.0,39,-99.99,,,-99.99,,2013-07-02 19:22:00,
2013-07-02 14:34:00,76.0,49.0,30.06,NE,45,11.0,22.0,39,-99.99,,,-99.99,,2013-07-02 19:34:00,
2013-07-02 14:43:00,76.0,51.0,30.06,NNE,25,10.0,19.0,42,-99.99,,,-99.99,,2013-07-02 19:43:00,
2013-07-02 15:02:00,76.0,50.0,30.06,NNE,30,12.0,19.0,40,-99.99,,,-99.99,,2013-07-02 20:02:00,
2013-07-02 15:11:00,77.0,52.0,30.06,North,0,10.0,18.0,43,-99.99,,,-99.99,,2013-07-02 20:11:00,
2013-07-02 15:33:00,76.0,51.0,30.05,North,5,12.0,22.0,41,-99.99,,,-99.99,,2013-07-02 20:33:00,
2013-07-02 15:43:00,76.0,51.0,30.05,NNE,20,12.0,20.0,42,-99.99,,,-99.99,,2013-07-02 20:43:00,
2013-07-02 16:02:00,77.0,50.0,30.05,NE,40,8.0,20.0,39,-99.99,,,-99.99,,2013-07-02 21:02:00,
2013-07-02 16:11:00,77.0,52.0,30.05,NNE,20,7.0,22.0,41,-99.99,,,-99.99,,2013-07-02 21:11:00,
2013-07-02 16:22:00,77.0,52.0,30.05,NNE,20,7.0,22.0,41,-99.99,,,-99.99,,2013-07-02 21:22:00,
2013-07-02 16:33:00,76.0,48.0,30.05,North,10,15.0,23.0,37,-99.99,,,-99.99,,2013-07-02 21:33:00,
2013-07-02 16:44:00,77.0,49.0,30.05,North,0,9.0,21.0,37,-99.99,,,-99.99,,2013-07-02 21:44:00,
2013-07-02 17:01:00,76.0,50.0,30.04,North,10,9.0,18.0,40,-99.99,,,-99.99,,2013-07-02 22:01:00,
2013-07-02 17:11:00,76.0,49.0,30.04,North,5,14.0,20.0,38,-99.99,,,-99.99,,2013-07-02 22:11:00,
2013-07-02 17:22:00,76.0,49.0,30.04,North,5,14.0,20.0,38,-99.99,,,-99.99,,2013-07-02 22:22:00,
2013-07-02 17:34:00,77.0,50.0,30.04,North,0,8.0,16.0,39,-99.99,,,-99.99,,2013-07-02 22:34:00,
2013-07-02 17:43:00,76.0,48.0,30.04,North,5,12.0,17.0,38,-99.99,,,-99.99,,2013-07-02 22:43:00,
2013-07-02 17:53:00,76.0,49.0,30.03,North,0,12.0,20.0,38,-99.99,,,-99.99,,2013-07-02 22:53:00,
2013-07-02 18:01:00,76.0,49.0,30.03,North,0,12.0,20.0,38,-99.99,,,-99.99,,2013-07-02 23:01:00,
2013-07-02 18:12:00,76.0,48.0,30.03,North,0,7.0,15.0,38,-99.99,,,-99.99,,2013-07-02 23:12:00,
2013-07-02 18:33:00,76.0,49.0,30.04,North,0,10.0,18.0,39,-99.99,,,-99.99,,2013-07-02 23:33:00,
2013-07-02 18:44:00,76.0,49.0,30.03,North,0,9.0,16.0,38,-99.99,,,-99.99,,2013-07-02 23:44:00,
2013-07-02 18:52:00,76.0,51.0,30.04,NNE,15,6.0,16.0,41,-99.99,,,-99.99,,2013-07-02 23:52:00,
2013-07-02 19:01:00,76.0,51.0,30.04,NNE,15,6.0,16.0,41,-99.99,,,-99.99,,2013-07-03 00:01:00,
2013-07-02 19:11:00,75.0,49.0,30.04,NNE,15,7.0,12.0,40,-99.99,,,-99.99,,2013-07-03 00:11:00,
2013-07-02 19:33:00,75.0,50.0,30.04,NNE,25,5.0,11.0,41,-99.99,,,-99.99,,2013-07-03 00:33:00,
2013-07-02 19:44:00,75.0,49.0,30.04,NE,35,5.0,10.0,40,-99.99,,,-99.99,,2013-07-03 00:44:00,
2013-07-02 20:01:00,74.0,50.0,30.04,NE,35,6.0,10.0,43,-99.99,,,-99.99,,2013-07-03 01:01:00,
2013-07-02 20:11:00,74.0,51.0,30.04,NNE,30,5.0,9.0,44,-99.99,,,-99.99,,2013-07-03 01:11:00,
2013-07-02 20:33:00,73.0,51.0,30.04,NE,35,4.0,7.0,46,-99.99,,,-99.99,,2013-07-03 01:33:00,
2013-07-02 20:42:00,73.0,52.0,30.05,NE,35,4.0,6.0,48,-99.99,,,-99.99,,2013-07-03 01:42:00,
2013-07-02 20:56:00,72.0,52.0,30.05,NE,35,2.0,4.0,50,-99.99,,,-99.99,,2013-07-03 01:56:00,
2013-07-02 21:05:00,72.0,52.0,30.05,NE,35,2.0,4.0,50,-99.99,,,-99.99,,2013-07-03 02:05:00,
2013-07-02 21:14:00,72.0,53.0,30.05,NE,55,3.0,4.0,52,-99.99,,,-99.99,,2013-07-03 02:14:00,
2013-07-02 21:39:00,69.0,53.0,30.05,NE,40,2.0,4.0,57,-99.99,,,-99.99,,2013-07-03 02:39:00,
2013-07-02 21:44:00,69.0,54.0,30.05,ENE,65,1.0,3.0,58,-99.99,,,-99.99,,2013-07-03 02:44:00,
2013-07-02 22:05:00,67.0,54.0,30.06,East,85,2.0,3.0,63,-99.99,,,-99.99,,2013-07-03 03:05:00,
2013-07-02 22:13:00,67.0,55.0,30.06,ENE,60,2.0,3.0,64,-99.99,,,-99.99,,2013-07-03 03:13:00,
2013-07-02 22:25:00,67.0,55.0,30.06,ENE,60,2.0,3.0,64,-99.99,,,-99.99,,2013-07-03 03:25:00,
2013-07-02 22:35:00,65.0,55.0,30.06,ENE,75,2.0,4.0,68,-99.99,,,-99.99,,2013-07-03 03:35:00,
2013-07-02 22:47:00,67.0,55.0,30.07,SW,215,0.0,1.0,64,-99.99,,,-99.99,,2013-07-03 03:47:00,
2013-07-02 23:01:00,65.0,55.0,30.07,NNE,15,0.0,2.0,69,-99.99,,,-99.99,,2013-07-03 04:01:00,
2013-07-02 23:11:00,65.0,55.0,30.07,ESE,110,0.0,1.0,69,-99.99,,,-99.99,,2013-07-03 04:11:00,
2013-07-02 23:33:00,66.0,55.0,30.08,SE,130,2.0,2.0,68,-99.99,,,-99.99,,2013-07-03 04:33:00,
2013-07-02 23:43:00,65.0,55.0,30.07,SE,125,2.0,2.0,70,-99.99,,,-99.99,,2013-07-03 04:43:00,